OpenBCM V1.13 (Linux)

Packet Radio Mailbox

DB0FHN

[JN59NK Nuernberg]

 Login: GUEST





  
CX2SA  > KEPS     29.10.04 06:23l 165 Lines 7766 Bytes #999 (0) @ AMSAT
BID : ORB04302.N
Read: GUEST DL7NDR
Subj: 2Line Orbital Elements 04302.AMSAT
Path: DB0FHN<DB0MRW<DB0WUE<DK0WUE<DB0RES<ON0AR<TU5EX<CX2SA
Sent: 041029/0417Z @:CX2SA.LAV.URY.SA #:32071 [Minas] FBB7.00e $:ORB04302.N
From: CX2SA@CX2SA.LAV.URY.SA
To  : KEPS@AMSAT


HR AMSAT ORBITAL ELEMENTS FOR AMATEUR SATELLITES IN NASA FORMAT
FROM WA5QGD FORT WORTH,TX October 28, 2004
SEND SUBSCRIBE/UNSUBSCRIBE TO majordomo@amsat.org ONLY
BID: ORB04302.N

DECODE 2-LINE ELSETS WITH THE FOLLOWING KEY:
1 AAAAAU 00  0  0 BBBBB.BBBBBBBB  .CCCCCCCC  00000-0  00000-0 0  DDDZ
2 AAAAA EEE.EEEE FFF.FFFF GGGGGGG HHH.HHHH III.IIII JJ.JJJJJJJJKKKKKZ
KEY: A-CATALOGNUM B-EPOCHTIME C-DECAY D-ELSETNUM E-INCLINATION F-RAAN
G-ECCENTRICITY H-ARGPERIGEE I-MNANOM J-MNMOTION K-ORBITNUM Z-CHECKSUM

TO ALL RADIO AMATEURS BT

AO-07
1 07530U 74089B   04302.15467529 -.00000029  00000-0  10000-3 0  3395
2 07530 101.6653 346.7326 0011840 324.5069  35.5215 12.53569129370579
AO-10
1 14129U 83058B   04302.66917120 -.00000066  00000-0  10000-3 0  1159
2 14129  26.7436  64.3881 6033752 136.0787 292.0129  2.05868405160768
UO-11
1 14781U 84021B   04302.78967895  .00000576  00000-0  85291-4 0  6202
2 14781  98.1876 289.9241 0009602  30.5051 329.6715 14.79035925107598
RS-10/11
1 18129U 87054A   04302.24227537  .00000045  00000-0  32559-4 0  5281
2 18129  82.9267  49.6981 0010953 318.6709  41.3619 13.72746763869256
FO-20
1 20480U 90013C   04302.22404114 -.00000025  00000-0  11424-4 0  7299
2 20480  99.0268 154.5315 0540859  45.4586 318.9393 12.83342516689742
RS-12/13
1 21089U 91007A   04301.94532047  .00000047  00000-0  34049-4 0 07600
2 21089 082.9178 083.2421 0029969 009.5749 350.5971 13.74442186688592
RS-15
1 23439U 94085A   04301.94361551 -.00000039  00000-0  10597-3 0 08312
2 23439 064.8132 123.1405 0156821 357.4988 002.5138 11.27550220405205
FO-29
1 24278U 96046B   04301.84576547 -.00000050  00000-0 -16550-4 0  8168
2 24278  98.5810  16.4061 0351425  58.1654 305.3195 13.52903998404770
SO-33
1 25509U 98061B   04302.21971354  .00000020  00000-0 -95046-5 0  2238
2 25509  31.4348 263.6705 0356078 298.6822  57.8082 14.27883230313646
AO-40
1 26609U 00072B   04302.42252581 -.00000100  00000-0  10000-3 0  4520
2 26609   9.4985 337.0023 7961664 333.3828   2.0228  1.25585324 18342
UO-14
1 20437U 90005B   04302.60766717  .00000063  00000-0  39002-4 0  6263
2 20437  98.2042 319.2107 0011019 158.8470 201.3168 14.31377244770901
AO-16
1 20439U 90005D   04302.58466867  .00000084  00000-0  46828-4 0  3135
2 20439  98.2342 333.9748 0011025 167.0049 193.1421 14.31635839770953
WO-18
1 20441U 90005F   04302.32183771  .00000043  00000-0  31391-4 0  5035
2 20441  98.2469 337.8340 0011648 167.6661 192.4818 14.31710426770974
LO-19
1 20442U 90005G   04301.66889288  .00000056  00000-0  36356-4 0 02451
2 20442 098.2600 341.3540 0011625 169.6609 190.4816 14.31882126770943
UO-22
1 21575U 91050B   04302.80168388  .00000215  00000-0  82309-4 0  2409
2 21575  98.2111 271.2986 0008419  71.2287 288.9809 14.39425632697216
KO-23
1 22077U 92052B   04301.92502978 -.00000037  00000-0  10000-3 0 03883
2 22077 066.0849 272.8665 0010967 309.7950 050.2102 12.86426622573717
AO-27
1 22825U 93061C   04302.03047925  .00000194  00000-0  92624-4 0  9730
2 22825  98.2463 303.9564 0007841 224.2358 135.8205 14.29092309578068
IO-26
1 22826U 93061D   04301.96090944  .00000094  00000-0  52863-4 0 06569
2 22826 098.2442 305.1760 0008032 227.9801 132.0704 14.29328861578118
KO-25
1 22828U 93061F   04302.07936580  .00000100  00000-0  55019-4 0  9083
2 22828  98.2359 305.5199 0009609 201.3957 158.6825 14.29648103546359
TO-31
1 25396U 98043C   04301.91891610 -.00000043  00000-0  00000-0 0 01093
2 25396 098.5627 009.7945 0003655 126.7023 233.4493 14.23638396327362
GO-32
1 25397U 98043D   04302.18851354 -.00000286  00000-0 -10786-3 0  5904
2 25397  98.5548   8.0032 0002288 126.2365 233.8943 14.23054385327330
UO-36
1 25693U 99021A   04302.53199942  .00000227  00000-0  50222-4 0  5898
2 25693  64.5566 275.0951 0044497 241.2019 118.4612 14.78403184297578
SO-41
1 26545U 00057A   04301.93947542  .00000822  00000-0  12697-3 0 09142
2 26545 064.5580 292.9037 0024246 346.5676 013.4795 14.79892230220568
MO-46
1 26548U 00057D   04302.15548822  .00001085  00000-0  15236-3 0   132
2 26548  64.5570 277.7438 0023958 331.1518  28.8216 14.82455734220881
SO-42
1 26549U 00057E   04302.49797218  .00000531  00000-0  90990-4 0  9747
2 26549  64.5546 298.5543 0024195 358.4835   1.6192 14.78781955220492
NO-44
1 26931U 01043C   04302.64123369 -.00000812  00000-0 -28599-3 0  8855
2 26931  67.0508 104.1228 0007558 275.2671  84.7418 14.29327760160675
AO-49
1 27605U 02058A   04302.80217762  .00000259  00000-0  60870-4 0  5725
2 27605  64.5555 118.7984 0084394 285.4557  73.7209 14.71952202 99799
SO-50
1 27607U 02058C   04302.80304318  .00000398  00000-0  83788-4 0  5537
2 27607  64.5566 123.1477 0085445 284.4713  74.6879 14.70756584 99709
AO-51
1 28375U 04025K   04302.18798366  .00000181  00000-0  67955-4 0   956
2 28375  98.2466   7.5497 0083591 211.1492 148.4720 14.40399528 17212
NOAA-10
1 16969U 86073A   04302.42076035 -.00000062  00000-0 -69363-5 0  4459
2 16969  98.7619 301.6849 0013413  88.8566 271.4153 14.27218562942036
NOAA-11
1 19531U 88089A   04302.46307985 -.00000195  00000-0 -77979-4 0  3043
2 19531  98.8611  25.4411 0010865 244.6462 115.3565 14.14732787830167
NOAA-12
1 21263U 91032A   04302.40117769  .00000105  00000-0  63202-4 0  7905
2 21263  98.6817 288.8199 0013104  27.4528 332.7344 14.25421425699221
MET-3/5
1 21655U 91056A   04301.93704648  .00000051  00000-0  10000-3 0 07144
2 21655 082.5540 322.7392 0014417 092.9277 267.3496 13.16997057634745
MET-2/21
1 22782U 93055A   04302.49477870  .00000035  00000-0  18282-4 0   419
2 22782  82.5456  84.7749 0023417  55.6486 304.6869 13.83572028563530
OKEAN-4
1 23317U 94066A   04301.96398654  .00000881  00000-0  10784-3 0 04949
2 23317 082.5356 113.8847 0022476 177.2843 182.8498 14.81920992541513
NOAA-14
1 23455U 94089A   04302.40182368  .00000008  00000-0  29220-4 0  3272
2 23455  99.1267 340.5625 0008607 295.1548  64.8730 14.13499580506750
SICH-1
1 23657U 95046A   04301.96466292  .00000770  00000-0  96015-4 0 02946
2 23657 082.5263 254.6775 0024170 161.7452 198.4635 14.80952875493581
NOAA-15
1 25338U 98030A   04302.34650526  .00000093  00000-0  58411-4 0  7770
2 25338  98.5197 311.7151 0010072 320.6324  39.4139 14.24460111335746
RESURS
1 25394U 98043A   04302.76835632  .00000051  00000-0  40755-4 0  9346
2 25394  98.5694  12.2312 0002493 100.6733 259.4727 14.24029545327515
FENGYUN1
1 25730U 99025A   04302.17208452 -.00000091  00000-0 -26781-4 0  2656
2 25730  98.6057 307.2892 0015194  44.8514 315.3904 14.11780241281770
OKEAN-0
1 25860U 99039A   04301.94620298  .00000244  00000-0  45203-4 0 02866
2 25860 097.7849 331.7561 0000701 104.7340 255.3946 14.73132951283812
NOAA-16
1 26536U 00055A   04302.18406857 -.00000011  00000-0  18486-4 0   782
2 26536  98.9792 253.7147 0010607   7.0436 353.0862 14.12166373211310
NOAA-17
1 27453U 02032A   04302.42656308  .00000192  00000-0  10357-3 0  1006
2 27453  98.6895  13.1626 0011819  12.4158 347.7298 14.23585299121864
HUBBLE
1 20580U 90037B   04302.31673682  .00001630  00000-0  11697-3 0  1943
2 20580  28.4703 339.2514 0003780 329.9778  30.0630 14.99378248595401
UARS
1 21701U 91063B   04302.38728409  .00000357  00000-0  44500-4 0  2962
2 21701  56.9800  49.5866 0003815  99.8620 260.2905 15.03652201718623
PO-34
1 25520U 98064B   04302.39942492  .00002131  00000-0  98612-4 0   417
2 25520  28.4589  61.4730 0005961 220.7420 139.2742 15.15828145331376
ISS
1 25544U 98067A   04302.89840278  .00032754  00000-0  27199-3 0   202
2 25544  51.6374   3.4953 0008526 289.2736  56.9703 15.69822361339312
OO-38
1 26063U 00004C   04302.54624801  .00000091  00000-0  51579-4 0  1960
2 26063 100.2263 113.9490 0036962 347.6059  12.4205 14.35675973249054
NO-45
1 26932U 01043D   04301.64803147 -.00000084  00000-0 -52408-6 0 08821
2 26932 067.0550 106.3265 0006500 285.1870 074.8474 14.29447498160566


Read previous mail | Read next mail


 22.06.2026 01:24:54lGo back Go up